When you browse on this site, cookies collect data to enhance your experience and personalize the content and advertising you see.
Visit our Privacy Policy to learn more. By continuing to use the site, you agree to this use of cookies and data.
  • In Schweiz
  • Länderverzeichnis
  • Für 7 Tage
  • Wassertemperatur
  • Satellitenkarten
  • Wetterkarte
  • Widgets
  • user-avatar
    Anmelden

    Stündliche Wetter Lamu

    Heute, 22 Januar, Dienstag

    Zeit Temperatur Niederschläge Wind Luftdruck Luftfeuchtigkeit
    00:00 +27°C° 0 mm 6 m/S 758 mmHg 78%
    01:00 +27°C° 0 mm 6 m/S 757 mmHg 79%
    02:00 +27°C° 0 mm 6 m/S 757 mmHg 81%
    03:00 +26°C° 0 mm 5 m/S 757 mmHg 83%
    04:00 +26°C° 0 mm 5 m/S 757 mmHg 85%
    05:00 +26°C° 0 mm 5 m/S 757 mmHg 87%
    06:00 +25°C° 0 mm 4 m/S 758 mmHg 89%
    07:00 +26°C° 0 mm 4 m/S 758 mmHg 84%
    08:00 +27°C° 0 mm 4 m/S 758 mmHg 79%
    09:00 +28°C° 0 mm 4 m/S 758 mmHg 74%
    10:00 +30°C° 0 mm 3 m/S 758 mmHg 69%
    11:00 +31°C° 0 mm 3 m/S 758 mmHg 64%
    12:00 +33°C° 0 mm 3 m/S 758 mmHg 58%
    13:00 +33°C° 0 mm 4 m/S 757 mmHg 58%
    14:00 +34°C° 0 mm 5 m/S 757 mmHg 57%
    15:00 +34°C° 0 mm 5 m/S 756 mmHg 57%
    16:00 +33°C° 0 mm 6 m/S 756 mmHg 60%
    17:00 +32°C° 0 mm 6 m/S 756 mmHg 63%
    18:00 +30°C° 0 mm 6 m/S 755 mmHg 66%
    19:00 +29°C° 0 mm 6 m/S 756 mmHg 71%
    20:00 +28°C° 0 mm 5 m/S 756 mmHg 76%
    21:00 +27°C° 0 mm 5 m/S 757 mmHg 81%
    22:00 +27°C° 0 mm 5 m/S 757 mmHg 82%
    23:00 +27°C° 0 mm 5 m/S 757 mmHg 83%

    Morgen, 23 Januar, Mittwoch

    Zeit Temperatur Niederschläge Wind Luftdruck Luftfeuchtigkeit
    00:00 +27°C° 0 mm 5 m/S 757 mmHg 84%
    01:00 +26°C° 0 mm 5 m/S 757 mmHg 85%
    02:00 +26°C° 0 mm 5 m/S 757 mmHg 86%
    03:00 +26°C° 0 mm 5 m/S 757 mmHg 87%
    04:00 +26°C° 0 mm 4 m/S 757 mmHg 87%
    05:00 +26°C° 0 mm 4 m/S 757 mmHg 86%
    06:00 +27°C° 0 mm 4 m/S 758 mmHg 85%
    07:00 +28°C° 0 mm 4 m/S 758 mmHg 79%
    08:00 +29°C° 0 mm 4 m/S 759 mmHg 73%
    09:00 +30°C° 0 mm 4 m/S 759 mmHg 66%
    10:00 +33°C° 0 mm 4 m/S 759 mmHg 59%
    11:00 +35°C° 0 mm 5 m/S 759 mmHg 51%
    12:00 +36°C° 0 mm 5 m/S 758 mmHg 43%
    13:00 +37°C° 0 mm 5 m/S 758 mmHg 43%
    14:00 +38°C° 0 mm 6 m/S 757 mmHg 43%
    15:00 +38°C° 0 mm 6 m/S 756 mmHg 42%
    16:00 +35°C° 0 mm 7 m/S 756 mmHg 50%
    17:00 +33°C° 0 mm 7 m/S 756 mmHg 57%
    18:00 +30°C° 0 mm 7 m/S 756 mmHg 65%
    19:00 +29°C° 0 mm 7 m/S 757 mmHg 69%
    20:00 +28°C° 0 mm 7 m/S 757 mmHg 74%
    21:00 +27°C° 0 mm 6 m/S 758 mmHg 78%
    22:00 +27°C° 0 mm 6 m/S 758 mmHg 81%
    23:00 +27°C° 0 mm 5 m/S 758 mmHg 83%

    übermorgen, 24 Januar, Donnerstag

    Zeit Temperatur Niederschläge Wind Luftdruck Luftfeuchtigkeit
    00:00 +26°C° 0 mm 5 m/S 758 mmHg 85%
    01:00 +26°C° 0 mm 4 m/S 758 mmHg 88%
    02:00 +26°C° 0 mm 4 m/S 758 mmHg 90%
    03:00 +25°C° 0 mm 3 m/S 757 mmHg 93%
    04:00 +25°C° 0 mm 3 m/S 758 mmHg 94%
    05:00 +25°C° 0 mm 3 m/S 758 mmHg 94%
    06:00 +24°C° 0 mm 2 m/S 758 mmHg 95%
    07:00 +26°C° 0 mm 2 m/S 759 mmHg 87%
    08:00 +28°C° 0 mm 3 m/S 759 mmHg 78%
    09:00 +30°C° 0 mm 3 m/S 760 mmHg 69%
    10:00 +33°C° 0 mm 3 m/S 759 mmHg 59%
    11:00 +35°C° 0 mm 3 m/S 759 mmHg 48%
    12:00 +37°C° 0 mm 4 m/S 759 mmHg 38%
    13:00 +37°C° 0 mm 4 m/S 758 mmHg 38%
    14:00 +37°C° 0 mm 5 m/S 757 mmHg 39%
    15:00 +39°C° 0 mm 6 m/S 756 mmHg 39%
    16:00 +35°C° 0 mm 6 m/S 756 mmHg 46%
    17:00 +33°C° 0 mm 7 m/S 756 mmHg 54%
    18:00 +30°C° 0 mm 7 m/S 756 mmHg 62%
    19:00 +29°C° 0 mm 7 m/S 757 mmHg 68%
    20:00 +28°C° 0 mm 6 m/S 757 mmHg 74%
    21:00 +27°C° 0 mm 6 m/S 758 mmHg 80%
    22:00 +27°C° 0 mm 6 m/S 758 mmHg 83%
    23:00 +27°C° 0 mm 5 m/S 758 mmHg 86%

    25 Januar, Freitag

    Zeit Temperatur Niederschläge Wind Luftdruck Luftfeuchtigkeit
    00:00 +26°C° 0 mm 5 m/S 758 mmHg 88%
    01:00 +26°C° 0 mm 4 m/S 758 mmHg 90%
    02:00 +26°C° 0 mm 4 m/S 757 mmHg 92%
    03:00 +25°C° 0 mm 4 m/S 757 mmHg 94%
    04:00 +25°C° 0 mm 3 m/S 757 mmHg 94%
    05:00 +25°C° 0 mm 3 m/S 757 mmHg 95%
    06:00 +25°C° 0 mm 3 m/S 758 mmHg 95%
    07:00 +27°C° 0 mm 3 m/S 758 mmHg 87%
    08:00 +28°C° 0 mm 3 m/S 759 mmHg 78%
    09:00 +30°C° 0 mm 3 m/S 760 mmHg 70%
    10:00 +33°C° 0 mm 3 m/S 760 mmHg 61%
    11:00 +36°C° 0 mm 3 m/S 759 mmHg 51%
    12:00 +38°C° 0 mm 4 m/S 759 mmHg 42%
    13:00 +37°C° 0 mm 4 m/S 758 mmHg 44%
    14:00 +36°C° 0 mm 5 m/S 757 mmHg 47%
    15:00 +36°C° 0 mm 6 m/S 756 mmHg 49%
    16:00 +34°C° 0 mm 6 m/S 756 mmHg 53%
    17:00 +33°C° 0 mm 6 m/S 756 mmHg 57%
    18:00 +32°C° 0 mm 6 m/S 756 mmHg 61%
    19:00 +30°C° 0 mm 5 m/S 757 mmHg 68%
    20:00 +29°C° 0 mm 5 m/S 757 mmHg 75%
    21:00 +27°C° 0 mm 5 m/S 758 mmHg 81%
    22:00 +27°C° 0 mm 5 m/S 758 mmHg 84%
    23:00 +27°C° 0 mm 4 m/S 758 mmHg 87%

    26 Januar, Samstag

    Zeit Temperatur Niederschläge Wind Luftdruck Luftfeuchtigkeit
    00:00 +26°C° 0 mm 4 m/S 758 mmHg 90%
    01:00 +26°C° 0 mm 4 m/S 758 mmHg 91%
    02:00 +26°C° 0 mm 4 m/S 757 mmHg 92%
    03:00 +26°C° 0 mm 4 m/S 757 mmHg 93%
    04:00 +26°C° 0 mm 4 m/S 757 mmHg 91%
    05:00 +26°C° 0 mm 4 m/S 758 mmHg 89%
    06:00 +27°C° 0 mm 4 m/S 758 mmHg 87%
    07:00 +27°C° 0 mm 4 m/S 759 mmHg 83%
    08:00 +28°C° 0 mm 4 m/S 759 mmHg 79%
    09:00 +29°C° 0 mm 4 m/S 760 mmHg 75%
    10:00 +29°C° 0 mm 4 m/S 760 mmHg 72%
    11:00 +30°C° 0 mm 4 m/S 759 mmHg 68%
    12:00 +30°C° 0 mm 4 m/S 759 mmHg 65%
    13:00 +33°C° 0 mm 4 m/S 758 mmHg 58%
    14:00 +35°C° 0 mm 5 m/S 757 mmHg 51%
    15:00 +37°C° 0 mm 5 m/S 757 mmHg 45%
    16:00 +35°C° 0 mm 5 m/S 757 mmHg 51%
    17:00 +33°C° 0 mm 6 m/S 757 mmHg 57%
    18:00 +30°C° 0 mm 6 m/S 757 mmHg 64%
    19:00 +29°C° 0 mm 6 m/S 757 mmHg 68%
    20:00 +28°C° 0 mm 6 m/S 758 mmHg 72%
    21:00 +27°C° 0 mm 6 m/S 758 mmHg 76%
    22:00 +27°C° 0 mm 5 m/S 758 mmHg 78%
    23:00 +27°C° 0 mm 5 m/S 758 mmHg 80%

    27 Januar, Sonntag

    Zeit Temperatur Niederschläge Wind Luftdruck Luftfeuchtigkeit
    00:00 +27°C° 0 mm 5 m/S 758 mmHg 82%
    01:00 +26°C° 0 mm 5 m/S 758 mmHg 83%
    02:00 +26°C° 0 mm 4 m/S 758 mmHg 85%
    03:00 +26°C° 0 mm 4 m/S 757 mmHg 86%
    04:00 +26°C° 0 mm 4 m/S 758 mmHg 87%
    05:00 +25°C° 0 mm 4 m/S 758 mmHg 88%
    06:00 +25°C° 0 mm 4 m/S 758 mmHg 89%
    07:00 +27°C° 0 mm 4 m/S 759 mmHg 81%
    08:00 +29°C° 0 mm 4 m/S 759 mmHg 73%
    09:00 +32°C° 0 mm 4 m/S 760 mmHg 65%
    10:00 +34°C° 0 mm 4 m/S 759 mmHg 57%
    11:00 +36°C° 0 mm 4 m/S 759 mmHg 50%
    12:00 +38°C° 0 mm 4 m/S 758 mmHg 42%
    13:00 +37°C° 0 mm 5 m/S 757 mmHg 42%
    14:00 +38°C° 0 mm 6 m/S 757 mmHg 42%
    15:00 +38°C° 0 mm 7 m/S 756 mmHg 43%
    16:00 +35°C° 0 mm 7 m/S 756 mmHg 50%
    17:00 +34°C° 0 mm 7 m/S 756 mmHg 57%
    18:00 +32°C° 0 mm 7 m/S 756 mmHg 64%
    19:00 +30°C° 0 mm 7 m/S 756 mmHg 68%
    20:00 +29°C° 0 mm 7 m/S 757 mmHg 72%
    21:00 +28°C° 0 mm 6 m/S 757 mmHg 76%
    22:00 +28°C° 0 mm 6 m/S 757 mmHg 77%
    23:00 +27°C° 0 mm 6 m/S 758 mmHg 78%
    Mehr zeigen